Lid_Strength_Index
3 3 3 3 3 3 3 3 3 3 3 3 2 2 2 2 3 5 9 5 4 -2 -2 3 4 4 2 3 3 4 11 13 11 11 10 7 8 6 5 7 5 4 4 3 1
4 4 4 4 4 4 3 3 3 3 3 3 3 3 2 2 4 6 2 -2 -2 -1 5 4 5 3 4 4 4 8 12 11 8 8 9 8 8 7 8 7 6 5 3 2 2
4 4 4 4 4 4 4 4 3 3 3 3 3 3 2 2 4 5 -2 -2 -3 -0 3 2 2 3 5 4 5 8 12 7 7 6 6 8 7 6 8 9 6 6 4 3 2
4 5 4 4 4 4 4 4 4 4 3 3 3 2 2 2 8 2 -2 -2 -2 4 3 3 3 5 6 7 5 10 8 7 6 6 6 7 6 7 7 8 5 3 3 3 3
4 4 4 4 4 5 4 4 4 4 4 3 3 2 3 5 6 -0 -2 -2 4 4 2 3 5 5 6 6 5 9 8 7 5 5 6 6 7 7 7 5 4 3 3 3 3
4 4 4 4 4 4 4 5 5 4 4 3 3 2 4 7 1 -1 1 3 5 3 2 2 5 4 5 6 6 5 8 8 5 5 6 7 7 6 7 5 4 4 4 3 3
4 4 4 4 4 4 4 5 5 5 4 3 3 3 3 5 1 -1 1 2 3 2 3 2 4 5 6 7 5 5 7 7 6 6 7 6 9 8 5 4 5 4 4 3 3
4 4 4 4 4 4 4 4 5 4 3 2 2 3 5 2 1 0 0 2 2 1 1 1 3 5 6 5 5 6 7 11 6 6 6 7 12 7 5 5 6 5 4 4 3
3 3 4 4 4 4 4 4 3 1 0 1 3 3 5 0 3 0 0 2 1 1 1 2 3 6 6 8 8 7 11 10 9 5 7 8 12 8 5 6 6 5 4 4 3
3 3 3 3 3 3 3 3 1 2 1 1 1 4 4 4 2 1 0 1 2 2 3 4 5 6 7 8 11 10 10 9 10 7 8 9 11 8 6 6 6 5 5 4 4
2 2 2 3 3 3 3 2 3 4 3 5 4 4 3 2 1 2 1 2 2 3 6 5 7 9 7 6 7 7 8 10 9 8 9 10 10 9 7 6 6 6 5 5 4
1 2 2 2 2 3 3 3 2 2 5 3 3 3 2 2 4 3 1 4 4 6 5 6 8 6 5 5 7 7 8 10 9 8 10 10 11 9 7 7 6 6 6 5 5
2 2 2 2 2 3 1 2 1 1 5 4 4 4 3 2 4 4 2 3 5 6 6 7 6 5 6 6 7 8 8 10 12 10 8 10 13 12 8 6 6 6 5 4 5
1 1 2 3 4 1 2 0 -0 1 7 6 5 4 3 3 5 2 2 3 5 7 6 6 5 6 6 7 6 8 6 7 9 10 11 8 15 12 9 9 8 7 6 5 4
1 1 2 2 1 2 1 -1 -0 1 14 6 5 2 3 4 4 4 2 3 6 6 6 7 6 7 7 7 6 7 6 8 8 9 9 9 12 11 9 11 9 8 6 5 4
1 2 2 1 1 0 -1 -0 1 9 13 8 6 5 5 5 4 4 4 3 3 6 5 6 4 5 6 5 5 5 7 7 8 9 12 10 10 12 11 11 9 8 6 5 4
2 3 3 -1 2 -1 -0 2 8 11 6 8 8 6 6 6 6 5 6 6 7 9 9 7 6 5 5 7 6 6 8 11 14 13 13 8 10 12 10 9 8 8 6 5 5
3 4 2 0 -1 -1 1 6 13 11 8 6 6 6 8 6 6 6 7 8 6 6 8 10 11 7 5 6 7 7 8 11 15 14 12 8 14 11 7 5 5 5 5 5 5
3 0 1 -0 -1 -0 4 12 14 10 7 7 7 8 8 7 7 7 7 7 6 6 9 10 9 6 5 5 6 8 10 7 9 9 11 12 11 8 6 6 6 6 6 6 5
1 1 2 -0 -1 1 7 13 10 5 5 6 9 7 9 8 8 8 8 6 7 6 5 8 11 7 6 5 6 7 6 10 10 14 14 14 13 13 9 9 8 8 7 7 5
1 3 1 -1 0 5 12 10 6 5 5 7 8 9 8 9 7 8 8 6 6 6 6 7 8 8 6 8 8 8 9 8 8 9 13 16 14 8 8 9 9 8 7 6 5
2 6 0 -0 5 5 7 6 7 5 5 6 6 7 8 8 8 9 9 7 6 6 7 6 8 10 9 6 5 7 8 8 11 12 10 15 14 8 8 7 7 7 6 5 5
4 3 0 1 10 7 5 6 5 6 6 6 7 7 6 8 9 8 7 6 5 6 8 7 8 11 10 8 6 8 7 7 7 8 12 14 14 8 8 7 7 7 6 5 5
3 6 3 2 3 5 6 6 7 5 5 5 7 6 8 8 7 8 7 6 5 6 5 5 8 10 13 11 8 9 8 7 8 10 10 13 11 9 9 9 7 6 5 5 5
3 5 4 6 6 5 5 6 7 7 5 5 6 6 8 9 8 8 7 6 5 6 5 7 10 8 8 8 8 8 8 8 8 8 13 12 12 10 8 8 7 6 5 5 5
4 5 3 4 5 5 6 6 7 6 6 7 7 6 6 8 8 10 7 6 7 6 6 5 9 8 9 9 8 9 8 7 7 8 9 10 12 8 7 6 6 6 5 5 5
1 1 3 5 5 6 6 6 6 6 5 5 5 6 7 6 5 5 4 5 6 7 7 7 8 10 11 9 10 11 9 8 8 7 9 12 10 7 7 6 6 5 5 5 4